Lewisburg, WV

11:03 PM EST on December 13, 2019 (GMT -0500)
Greenbrier Valley

Weather History for KLWB - November, 2019

Change the Weather History Date:

Tuesday, November 19, 2019

  Actual Average Record
Temperature  
Mean Temperature 38 °F -  
Max Temperature 44 °F 55 °F 72 °F (1985)
Min Temperature 33 °F 31 °F 10 °F (2014)
Degree Days  
Heating Degree Days 26    
Moisture  
Dew Point 32 °F    
Average Humidity 84    
Maximum Humidity 94    
Minimum Humidity 57    
Precipitation  
Precipitation 0.00 in - - ()
Sea Level Pressure  
Sea Level Pressure 29.82 in    
Wind  
Wind Speed 0 mph (WSW)    
Max Wind Speed 6 mph    
Max Gust Speed -    
Visibility 10 miles    
Events      
Averages and records for this station are not official NWS values.
T = Trace of Precipitation, MM = Missing Value Source: NWS Daily Summary

Daily Weather History Graph

Daily Weather History Graph

Search for Another Location

Airport or City:

Astronomy

Nov. 19, 2019 Rise Set
Actual Time 7:05 AM EST 5:07 PM EST
Civil Twilight 6:37 AM EST 5:35 PM EST
Nautical Twilight 6:05 AM EST 6:07 PM EST
Astronomical Twilight 5:34 AM EST 6:39 PM EST
Moon No Moon Rise 1:16 PM EST (11/19)
Length of Visible Light 10h 58m
Length of Day
10h 01m
Waning Gibbous, 52% of the Moon is Illuminated
Nov 19
Waning Gibbous
Nov 19
Last Quarter
Nov 26
New
Dec 4
First Quarter
Dec 12
Full

Hourly Weather History & Observations

Time (EST) Temp. Windchill Dew Point Humidity Pressure Visibility Wind Dir Wind Speed Gust Speed Precip Events Conditions
12:15 AM 34.0 °F - 31.6 °F 91% 29.77 in 10.0 mi Calm Calm - N/A   Mostly Cloudy
12:35 AM 33.4 °F - 32.0 °F 94% 29.77 in 10.0 mi Calm Calm - N/A   Overcast
12:55 AM 33.8 °F - 32.0 °F 93% 29.77 in 10.0 mi Calm Calm - N/A   Overcast
1:15 AM 34.7 °F - 32.2 °F 91% 29.77 in 10.0 mi Calm Calm - N/A   Overcast
1:35 AM 35.8 °F - 32.0 °F 86% 29.77 in 10.0 mi Calm Calm - N/A   Overcast
1:55 AM 34.9 °F - 32.0 °F 89% 29.77 in 10.0 mi Calm Calm - N/A   Overcast
2:15 AM 35.6 °F - 32.9 °F 90% 29.77 in 10.0 mi Calm Calm - N/A   Overcast
2:35 AM 34.0 °F - 32.2 °F 93% 29.77 in 10.0 mi Calm Calm - N/A   Overcast
2:55 AM 34.3 °F - 32.5 °F 93% 29.78 in 10.0 mi Calm Calm - N/A   Overcast
3:15 AM 35.1 °F - 32.5 °F 91% 29.77 in 10.0 mi Calm Calm - N/A   Overcast
3:35 AM 35.1 °F - 32.5 °F 91% 29.77 in 10.0 mi Calm Calm - N/A   Overcast
3:55 AM 35.2 °F - 32.4 °F 89% 29.77 in 10.0 mi Calm Calm - N/A   Overcast
4:15 AM 35.2 °F - 32.9 °F 91% 29.77 in 10.0 mi Calm Calm - N/A   Overcast
4:35 AM 36.0 °F - 33.1 °F 89% 29.77 in 10.0 mi Calm Calm - N/A   Overcast
4:55 AM 34.3 °F - 32.9 °F 94% 29.76 in 10.0 mi Calm Calm - N/A   Overcast
5:15 AM 34.7 °F 31.8 °F 32.9 °F 93% 29.77 in 10.0 mi North 3.5 mph - N/A   Overcast
5:35 AM 35.1 °F - 32.7 °F 91% 29.77 in 10.0 mi Calm Calm - N/A   Overcast
5:55 AM 35.6 °F - 32.5 °F 89% 29.77 in 10.0 mi Calm Calm - N/A   Overcast
6:15 AM 34.9 °F - 32.5 °F 91% 29.77 in 10.0 mi Calm Calm - N/A   Overcast
6:35 AM 34.7 °F - 32.9 °F 93% 29.79 in 10.0 mi Calm Calm - N/A   Overcast
6:55 AM 34.9 °F - 33.1 °F 93% 29.79 in 10.0 mi Calm Calm - N/A   Overcast
7:15 AM 35.2 °F - 33.1 °F 92% 29.79 in 10.0 mi Calm Calm - N/A   Overcast
7:35 AM 35.2 °F - 33.4 °F 93% 29.80 in 10.0 mi Calm Calm - N/A   Overcast
7:55 AM 36.1 °F - 33.8 °F 91% 29.81 in 10.0 mi Calm Calm - N/A   Overcast
8:15 AM 36.5 °F - 34.0 °F 91% 29.81 in 10.0 mi Calm Calm - N/A   Overcast
8:35 AM 37.0 °F - 34.2 °F 89% 29.81 in 10.0 mi Calm Calm - N/A   Overcast
8:55 AM 37.4 °F - 34.9 °F 91% 29.82 in 10.0 mi Calm Calm - N/A   Overcast
8:59 AM 37.4 °F 34.9 °F 35.6 °F 93% 29.81 in 10.0 mi SW 3.5 mph - N/A   Overcast
9:59 AM 39.2 °F 37.0 °F 35.6 °F 87% 29.82 in 10.0 mi SSW 3.5 mph - N/A   Overcast
10:59 AM 39.2 °F 37.0 °F 35.6 °F 87% 29.83 in 10.0 mi SSW 3.5 mph - N/A   Overcast
11:59 AM 41.0 °F 37.1 °F 32.0 °F 70% 29.82 in 10.0 mi West 5.8 mph - N/A   Overcast
12:59 PM 41.0 °F 37.1 °F 33.8 °F 76% 29.82 in 10.0 mi West 5.8 mph - N/A   Overcast
1:59 PM 41.0 °F 37.1 °F 33.8 °F 76% 29.80 in 10.0 mi WSW 5.8 mph - N/A   Overcast
2:59 PM 42.8 °F 39.3 °F 32.0 °F 66% 29.81 in 10.0 mi WSW 5.8 mph - N/A   Overcast
4:59 PM 44.6 °F - 30.2 °F 57% 29.83 in 10.0 mi Calm Calm - N/A   Mostly Cloudy
5:59 PM 41.0 °F - 30.2 °F 65% 29.83 in 10.0 mi Calm Calm - N/A   Mostly Cloudy
6:59 PM 39.2 °F - 30.2 °F 70% 29.85 in 10.0 mi Calm Calm - N/A   Overcast
7:15 PM 39.4 °F - 30.9 °F 72% 29.86 in 10.0 mi Calm Calm - N/A   Overcast
7:35 PM 39.6 °F - 30.9 °F 71% 29.87 in 10.0 mi Calm Calm - N/A   Overcast
7:55 PM 38.8 °F - 30.7 °F 73% 29.87 in 10.0 mi Calm Calm - N/A   Overcast
8:15 PM 38.3 °F - 30.9 °F 75% 29.88 in 10.0 mi Calm Calm - N/A   Overcast
8:35 PM 38.1 °F - 31.1 °F 76% 29.88 in 10.0 mi Calm Calm - N/A   Mostly Cloudy
8:55 PM 38.1 °F - 31.1 °F 76% 29.88 in 10.0 mi Calm Calm - N/A   Scattered Clouds
9:15 PM 37.6 °F - 30.9 °F 77% 29.89 in 10.0 mi Calm Calm - N/A   Scattered Clouds
9:35 PM 36.7 °F - 31.1 °F 80% 29.89 in 10.0 mi Calm Calm - N/A   Clear
9:55 PM 37.4 °F - 31.1 °F 78% 29.89 in 10.0 mi Calm Calm - N/A   Clear
10:15 PM 36.5 °F - 30.7 °F 80% 29.89 in 10.0 mi Calm Calm - N/A   Clear
10:35 PM 35.6 °F - 30.9 °F 83% 29.89 in 10.0 mi Calm Calm - N/A   Scattered Clouds
10:55 PM 35.2 °F - 30.9 °F 84% 29.89 in 10.0 mi Calm Calm - N/A   Mostly Cloudy
11:15 PM 34.7 °F - 30.7 °F 85% 29.89 in 10.0 mi Calm Calm - N/A   Mostly Cloudy
11:35 PM 35.1 °F - 30.9 °F 85% 29.90 in 10.0 mi Calm Calm - N/A   Scattered Clouds
11:55 PM 34.7 °F - 30.9 °F 86% 29.90 in 10.0 mi Calm Calm - N/A   Scattered Clouds